Regional Weather Roundup
Issued by NWS

Home | Current Version | Previous Version | Text Only | Print | Product List | Glossary Off
Versions: 1 2 3 4 5 6 7 8 9 10 11 12 13 14 15 16 17 18 19 20 21 22 23 24 25 26 27 28 29 30 31 32 33 34 35 36 37 38 39 40 41 42 43 44 45 46 47 48 49 50

000
ASUS45 KABQ 201410
RWRNM
NEW MEXICO REGIONAL WEATHER ROUNDUP
NATIONAL WEATHER SERVICE ALBUQUERQUE NM
800 AM MDT FRI APR 20 2018

NOTE: "FAIR" MEANS FEW OR NO CLOUDS BELOW 12,000 FEET AGL WITH NO
       SIGNIFICANT WEATHER OR OBSTRUCTIONS TO VISION.

      THIS PRODUCT IS RELEASED AS TWO VERSIONS.  ONE VERSION NEAR
      THE TOP OF THE HOUR CONTAINING PRELIMINARY DATA FROM ALBUQUERQUE
      AND OTHER STATIONS.  A FINAL VERSION WITH ADDITIONAL DATA IS
      ISSUED ABOUT 10 MINUTES AFTER THE HOUR.

NMZ501-503-504-510>518-201500-
NORTHWEST PLATEAU/NORTHCENTRAL MOUNTAINS

CITY           SKY/WX    TMP DP  RH WIND       PRES   REMARKS
FARMINGTON     FAIR      40  13  33 W9        29.90R WCI  34
LOS ALAMOS     LGT RAIN  39  35  83 S10       29.94R WCI  32
SANTA FE       CLOUDY    47  33  58 S22G36    29.92R
TAOS           CLOUDY    43  28  55 W18       29.97R
ANGEL FIRE     CLOUDY    37  24  59 S22G28    30.01F WCI  26

$$
NMZ402-403-502-505>509-201500-
WESTCENTRAL MOUNTAINS/SOUTHWEST MOUNTAINS

CITY           SKY/WX    TMP DP  RH WIND       PRES   REMARKS
GALLUP         FAIR      38  18  44 SW10      29.95R WCI  31
GRANTS         FAIR      42  13  30 SW16G24   29.96S
SILVER CITY    FAIR      48  19  31 NW14      29.98S

$$
NMZ407-409-411-412-201500-
SOUTHERN DESERTS

CITY           SKY/WX    TMP DP  RH WIND       PRES   REMARKS
DEMING         FAIR      53  18  25 W23G33    29.94R
LAS CRUCES     FAIR      59  31  34 W23       29.92R
HOLLOMAN AFB   FAIR      66  46  49 SE22      29.87S
ALAMOGORDO     FAIR      66  45  45 S28G38    29.86S
T OR C         FAIR      59  10  14 W16       29.90R

$$
NMZ519>523-201500-
CENTRAL VALLEYS/CENTRAL HIGHLANDS

CITY           SKY/WX    TMP DP  RH WIND       PRES   REMARKS
ALBUQUERQUE    PTSUNNY   51  19  28 NW9       29.94R
DOUBLE EAGLE   PTSUNNY   46  19  34 W7        29.94R
MORIARTY ARPT  PTSUNNY   49  37  64 S16G23    29.97R
CLINES CORNERS FAIR      42  33  70 SE24G33   29.97F
BELEN          FAIR      50  18  28 W13       29.94R
SOCORRO        FAIR      54  18  24 N10       29.90S

$$
NMZ524>526-539-540-201500-
SOUTHCENTRAL MOUNTAINS

CITY           SKY/WX    TMP DP  RH WIND       PRES   REMARKS
RUIDOSO        FAIR      43  36  75 NE5       30.00F

$$
NMZ527>531-201500-
NORTHEAST HIGHLANDS/NORTHEAST PLAINS

CITY           SKY/WX    TMP DP  RH WIND       PRES   REMARKS
LAS VEGAS      CLOUDY    42  31  64 S18       30.01S
RATON          CLOUDY    41  27  57 S18       30.00R
CLAYTON        CLOUDY    44  29  55 SE16G24   30.06R

$$
NMZ532>537-201500-
EASTCENTRAL PLAINS

CITY           SKY/WX    TMP DP  RH WIND       PRES   REMARKS
SANTA ROSA     CLOUDY    51  32  48 SE21G30   29.97S
TUCUMCARI      CLOUDY    54  30  40 S24       30.00S
CANNON AFB     PTSUNNY   50  31  48 SE24G31   30.04F
CLOVIS AIRPORT CLOUDY    50  30  46 SE29G40   30.05F

$$
NMZ028-029-538-201500-
SOUTHEAST PLAINS

CITY           SKY/WX    TMP DP  RH WIND       PRES   REMARKS
ROSWELL        FAIR      57  38  48 S20G25    29.95F
ARTESIA        FAIR      57  37  47 SE28G37   29.95F
CARLSBAD       FAIR      58  38  47 SE24      29.94F
HOBBS          MOSUNNY   55  32  41 SE21G30   30.01F


$$



USA.gov is the U.S. government's official web portal to all federal, state and local government web resources and services.